If you wish to contribute or participate in the discussions about articles you are invited to join SKYbrary as a registered user

 Actions

Pavlodar Airport

From SKYbrary Wiki

UASP
Airport
ICAO: UASP – IATA: PWQ
Summary
Name Pavlodar Airport
Region Asia and Pacific
Territory Kazakhstan KZ.gif
Location Pavlodar
Serving Pavlodar
Elevation 124.968 m
410 ft
410 ft124.968 m
Coordinates 52° 11' 42.69" N, 77° 4' 22.94" E
Runways
Designator Length Width Surface ROPS
3/21 2500 m8,202.1 ft
45 m147.638 ft
CON /


METAR
Observation UASP 281230Z 29008MPS 9999 OVC012CB M02/M05 Q1023 R21/290255 NOSIG RMK QFE756/1008
Station PAVLODAR
Date/Time 28 October 2020 12:30:00
Wind direction 290°
Wind speed kts
Lowest cloud amount overcast
Temperature
Dew point
Humidity 79%
QNH 1023 hPa
Weather condition n/a

BS
Tag(s) Bird Strike
CFIT
Tag(s) Altimeter Temperature Error Correction

Pavlodar Airport

ICAO: UASP IATA: PWQ

Description

Regional airport serving the city of Pavlodar.

Climatology

Cold Semi-arid climate (Köppen climate classification BSk). - Hot, sometimes extremely hot summers and cold, sometimes very cold winters. Some snowfall during the winter. Areas featuring cold semi-arid climates are sometimes subject to major temperature swings during a 24 hour period.

Maps

Terrain

Loading map...

Airport Layout

Loading map...


Accidents & Serious Incidents at or in vicinity of UASP

None on SKYbrary